[[{"header":{"parameterUnit":"m.s-1","parameterCategory":1,"la1":30.2991,"la2":30.254,"lo1":-89.0895,"lo2":-89.0444,"dy":0.0017,"dx":0.0017,"nx":28,"ny":28,"refTime":"2024-08-16T21:00:00:Z","depth":0,"parameterNumber":2,"parameterNumberName":"U-component_of_WINDS"},"data":[0,0,0,0,0,0,0,0,0,0,0,0,0,0,0,0,0,0,0,0,0,0,0,0,0,0,0,0,0,0,0,0,0,0,0,0,0,0,0,0,0,0,0,0,0,0,0,0,0,0,0,0,0,0,0,0,0,0,-2.8523,-2.8523,0,-2.8479,-2.8479,-2.8478,-2.8408,-2.8407,-2.8406,-2.8404,-2.8359,-2.8359,-2.8359,0,0,0,0,0,0,0,0,0,0,0,0,0,-2.8547,-2.8547,-2.8523,-2.8522,-2.8522,-2.8479,-2.8479,-2.8478,-2.8408,-2.8407,-2.8405,-2.8404,-2.8359,-2.8359,-2.8359,0,0,0,0,0,0,0,0,0,0,0,0,0,-2.8524,-2.8547,-2.8523,-2.8482,-2.8478,-2.848,-2.8479,-2.8478,-2.8409,-2.8407,-2.8405,-2.8403,-2.8359,-2.8359,-2.8359,-2.8397,0,0,-2.8359,-2.8359,0,0,0,0,0,0,0,0,-2.8525,-2.8523,-2.8489,-2.8485,-2.848,-2.8447,-2.8471,-2.8451,-2.8409,-2.8435,-2.8404,-2.8402,-2.839,-2.8387,-2.8383,-2.8395,-2.8393,-2.8359,-2.8359,-2.8359,-2.8359,0,0,0,0,0,0,0,-2.8527,-2.8524,-2.8506,-2.8488,-2.8483,-2.8466,-2.8461,-2.8467,-2.8424,-2.8432,-2.8427,-2.8423,-2.8387,-2.8383,-2.8382,-2.8392,-2.8359,-2.8359,-2.8359,-2.8359,-2.8435,-2.8437,0,0,0,0,0,0,-2.8534,-2.8526,-2.8507,-2.8504,-2.8498,-2.8467,-2.8461,-2.846,-2.8423,-2.8416,-2.8425,-2.842,-2.8384,-2.8382,-2.838,-2.8422,-2.8359,-2.8359,-2.8359,-2.8433,-2.8436,-2.8438,0,0,0,0,0,0,-2.8535,-2.8533,-2.8509,-2.8514,-2.8509,-2.8469,-2.8468,-2.846,-2.8456,-2.8418,-2.841,-2.8429,-2.8383,-2.838,-2.8394,-2.842,-2.8359,-2.8359,-2.8431,-2.8434,-2.8437,-2.8508,0,0,0,0,0,0,-2.8536,-2.8534,-2.8547,-2.8515,-2.8509,-2.8523,-2.847,-2.846,-2.8456,-2.8449,-2.8419,-2.8412,-2.8381,-2.8394,-2.8394,-2.8419,-2.8359,-2.8428,-2.8432,-2.8436,-2.8503,-2.8513,-2.8522,0,0,0,0,0,-2.8537,-2.8569,-2.8548,-2.8547,-2.8525,-2.8525,-2.8522,-2.8485,-2.8459,-2.8472,-2.8448,-2.8413,-2.8418,-2.8396,-2.8395,-2.8421,-2.8427,-2.8431,-2.8436,-2.8499,-2.8511,-2.8522,0,0,0,0,0,0,-2.8604,-2.8563,-2.854,-2.8562,-2.8548,-2.8513,-2.8528,-2.8499,-2.8492,-2.8486,-2.8441,-2.8435,-2.8455,-2.8439,-2.8416,-2.8457,-2.8417,-2.8422,-2.8466,-2.8477,-2.8486,-2.8489,-2.8359,0,0,0,0,0,-2.8622,-2.8625,-2.8589,-2.8612,-2.8606,-2.8569,-2.8567,-2.8541,-2.8524,-2.8517,-2.8494,-2.8479,-2.8477,-2.8476,-2.8472,-2.8502,-2.8495,-2.8519,-2.8529,-2.8536,-2.854,-2.8556,-2.8567,-2.8453,-2.8453,-2.8453,0,0,-2.8658,-2.8636,-2.864,-2.8625,-2.861,-2.8615,-2.8564,-2.857,-2.8573,-2.8518,-2.853,-2.8513,-2.8493,-2.8516,-2.8524,-2.8503,-2.8571,-2.8542,-2.8549,-2.8548,-2.8562,-2.8573,-2.8582,-2.8456,-2.8456,-2.8455,0,0,-2.8725,-2.8709,-2.8726,-2.8714,-2.8693,-2.8669,-2.8674,-2.8644,-2.8631,-2.8642,-2.8602,-2.8605,-2.8603,-2.8591,-2.8584,-2.8652,-2.8619,-2.8652,-2.8699,-2.8715,-2.8724,-2.8732,-2.8756,-2.8765,-2.8656,-2.8656,-2.8657,0,-2.8771,-2.8776,-2.8739,-2.8748,-2.8743,-2.8696,-2.8714,-2.8703,-2.8682,-2.868,-2.8658,-2.8655,-2.8638,-2.8658,-2.8675,-2.8671,-2.8675,-2.8653,-2.8726,-2.8733,-2.874,-2.8762,-2.8771,-2.866,-2.866,-2.866,-2.8659,0,-2.8835,-2.8839,-2.8856,-2.8838,-2.8835,-2.8849,-2.8815,-2.8817,-2.8792,-2.8771,-2.8785,-2.8764,-2.8755,-2.8759,-2.8734,-2.8775,-2.8763,-2.8734,-2.8693,-2.8755,-2.8776,-2.8784,-2.8666,-2.8665,-2.8663,-2.8662,0,0,-2.8939,-2.8903,-2.891,-2.8902,-2.8878,-2.888,-2.8894,-2.8886,-2.8889,-2.8878,-2.8887,-2.8888,-2.8862,-2.8855,-2.8829,-2.8844,-2.8899,-2.8813,-2.8812,-2.8829,-2.8944,-2.8965,-2.8975,-2.8879,-2.888,-2.8881,-2.8945,0,-2.9,-2.9019,-2.8988,-2.9014,-2.9019,-2.8975,-2.8987,-2.8974,-2.8955,-2.8956,-2.8936,-2.8937,-2.8903,-2.8899,-2.8911,-2.8889,-2.8921,-2.8885,-2.8887,-2.8887,-2.8891,-2.8985,-2.9007,-2.9068,-2.8953,-2.8954,-2.8955,0,-2.9073,-2.9066,-2.9094,-2.907,-2.907,-2.9081,-2.9073,-2.9075,-2.906,-2.9046,-2.904,-2.9011,-2.9022,-2.8985,-2.9001,-2.8977,-2.8977,-2.8967,-2.8969,-2.8966,-2.8924,-2.8984,-2.9087,-2.9095,-2.8967,-2.8966,-2.8965,0,-2.9146,-2.9144,-2.916,-2.9155,-2.9128,-2.9137,-2.9126,-2.9109,-2.9108,-2.9101,-2.91,-2.9095,-2.9092,-2.909,-2.906,-2.9036,-2.908,-2.904,-2.9069,-2.907,-2.9078,-2.9077,-2.9181,-2.9081,-2.9081,-2.908,-2.908,0,-2.9216,-2.9234,-2.9193,-2.9203,-2.9223,-2.9188,-2.9209,-2.9193,-2.918,-2.9187,-2.915,-2.9157,-2.9118,-2.9122,-2.9099,-2.9116,-2.9115,-2.9104,-2.9098,-2.9107,-2.9108,-2.9104,-2.9099,-2.9083,-2.9082,-2.9082,-2.9081,0,-2.9299,-2.9272,-2.9287,-2.9262,-2.9256,-2.9272,-2.925,-2.9258,-2.9239,-2.9249,-2.9249,-2.9218,-2.9221,-2.9192,-2.9189,-2.9174,-2.9201,-2.9188,-2.9206,-2.9201,-2.9231,-2.9229,-2.9334,-2.9346,-2.9241,-2.9242,-2.9242,0,-2.9345,-2.9358,-2.9335,-2.9337,-2.9328,-2.9332,-2.9331,-2.9299,-2.9299,-2.9285,-2.9296,-2.9296,-2.9294,-2.93,-2.9278,-2.9276,-2.9261,-2.9299,-2.9261,-2.927,-2.9261,-2.926,-2.9262,-2.9306,-2.9307,-2.9308,-2.9309,0,-2.9429,-2.9416,-2.9415,-2.9412,-2.9412,-2.9407,-2.94,-2.9404,-2.9369,-2.9372,-2.9374,-2.9373,-2.9371,-2.9371,-2.9366,-2.9355,-2.9327,-2.9322,-2.9329,-2.9337,-2.9347,-2.9341,-2.9226,-2.9319,-2.9318,-2.9317,-2.9317,-2.9317,-2.9494,-2.9504,-2.949,-2.9492,-2.9484,-2.9479,-2.9486,-2.9469,-2.947,-2.9466,-2.9448,-2.9454,-2.9442,-2.9431,-2.9424,-2.9429,-2.9411,-2.942,-2.9422,-2.9424,-2.943,-2.9348,-2.9428,-2.9427,-2.9427,-2.9427,-2.9427,0,-2.9575,-2.9565,-2.9567,-2.9559,-2.9561,-2.9536,-2.9528,-2.9531,-2.9537,-2.9528,-2.9528,-2.9532,-2.9533,-2.9513,-2.9512,-2.952,-2.9507,-2.9521,-2.9519,-2.9517,-2.9446,-2.944,-2.9531,-2.9531,-2.9531,-2.9531,-2.9531,-2.9531,-2.9617,-2.9634,-2.962,-2.9633,-2.9622,-2.9628,-2.9626,-2.9622,-2.9615,-2.9621,-2.9622,-2.961,-2.9597,-2.9595,-2.9595,-2.9589,-2.959,-2.9608,-2.9598,-2.9532,-2.9522,-2.9512,-2.9506,-2.9609,-2.9609,-2.9668,-2.9668,-2.9669]},{"header":{"parameterUnit":"m.s-1","parameterCategory":1,"la1":30.2991,"la2":30.254,"lo1":-89.0895,"lo2":-89.0444,"dy":0.0017,"dx":0.0017,"nx":28,"ny":28,"refTime":"2024-08-16T21:00:00:Z","depth":0,"parameterNumber":3,"parameterNumberName":"V-component_of_WINDS"},"data":[0,0,0,0,0,0,0,0,0,0,0,0,0,0,0,0,0,0,0,0,0,0,0,0,0,0,0,0,0,0,0,0,0,0,0,0,0,0,0,0,0,0,0,0,0,0,0,0,0,0,0,0,0,0,0,0,0,0,2.9901,2.9901,0,2.9923,2.9924,2.9924,2.9989,2.999,2.9992,2.9993,3.001,3.001,3.0009,0,0,0,0,0,0,0,0,0,0,0,0,0,2.9911,2.991,2.9901,2.9901,2.9902,2.9923,2.9924,2.9924,2.9989,2.999,2.9992,2.9994,3.0011,3.001,3.0009,0,0,0,0,0,0,0,0,0,0,0,0,0,2.9917,2.991,2.9901,2.9937,2.994,2.9923,2.9924,2.9924,2.9988,2.999,2.9993,2.9995,3.0011,3.001,3.0009,2.9957,0,0,3.0005,3.0004,0,0,0,0,0,0,0,0,2.9917,2.9917,2.9931,2.9934,2.9938,2.9956,2.9934,2.9935,2.9988,2.997,2.9993,2.9996,2.999,2.9991,2.999,2.9958,2.9959,3.0004,3.0004,3.0003,3.0003,0,0,0,0,0,0,0,2.9916,2.9916,2.991,2.9931,2.9935,2.995,2.9954,2.9934,2.9967,2.9972,2.9976,2.9978,2.9992,2.9991,2.9991,2.9959,3.0004,3.0003,3.0002,3.0002,2.9887,2.9885,0,0,0,0,0,0,2.9911,2.9915,2.9909,2.991,2.9933,2.9948,2.9952,2.9948,2.9968,2.9973,2.9977,2.9981,2.9992,2.9992,2.9992,2.9933,3.0003,3.0002,3.0001,2.9889,2.9887,2.9884,0,0,0,0,0,0,2.9911,2.991,2.9908,2.9914,2.9915,2.9946,2.9941,2.9947,2.9946,2.9972,2.9978,2.9969,2.9994,2.9994,2.9966,2.9935,3.0001,3.0,2.9892,2.9889,2.9885,2.9815,0,0,0,0,0,0,2.9911,2.991,2.9891,2.9913,2.9915,2.9883,2.9939,2.9946,2.9944,2.9951,2.9966,2.9971,2.9996,2.9968,2.9965,2.9934,2.9999,2.9895,2.989,2.9886,2.9821,2.981,2.9801,0,0,0,0,0,2.9911,2.9869,2.989,2.9889,2.9892,2.9881,2.9881,2.9912,2.9941,2.9922,2.9939,2.9971,2.9939,2.9964,2.9961,2.993,2.9897,2.9892,2.9887,2.9825,2.9812,2.9801,0,0,0,0,0,0,2.984,2.9873,2.9896,2.986,2.9868,2.9892,2.9869,2.9897,2.9895,2.9901,2.9938,2.9941,2.9908,2.9916,2.9944,2.9882,2.9923,2.9917,2.9877,2.9865,2.9856,2.9853,2.9998,0,0,0,0,0,2.9821,2.981,2.9839,2.9804,2.9807,2.9837,2.9833,2.9857,2.9865,2.9868,2.9883,2.9888,2.988,2.9873,2.9867,2.9823,2.9827,2.98,2.979,2.9782,2.9776,2.9754,2.9742,2.9867,2.9868,2.9868,0,0,2.9779,2.9796,2.9786,2.979,2.9799,2.9786,2.9839,2.9823,2.9813,2.9865,2.984,2.9851,2.986,2.9824,2.9809,2.983,2.9743,2.9776,2.9769,2.9767,2.9747,2.9735,2.9725,2.9864,2.9865,2.9865,0,0,2.9698,2.9709,2.9682,2.9691,2.9704,2.9725,2.9718,2.9739,2.9749,2.9725,2.9764,2.9753,2.9737,2.9742,2.9742,2.9665,2.9693,2.9662,2.961,2.9588,2.9578,2.9569,2.9541,2.953,2.9656,2.9656,2.9656,0,2.9644,2.9627,2.9664,2.9646,2.9646,2.9695,2.9668,2.9673,2.9683,2.9681,2.9706,2.9688,2.9698,2.9664,2.9645,2.9644,2.9637,2.9659,2.9577,2.9568,2.9561,2.9534,2.9524,2.9652,2.9652,2.9653,2.9653,0,2.9561,2.9549,2.9525,2.9536,2.9534,2.951,2.9543,2.9536,2.956,2.9578,2.9554,2.9567,2.9565,2.9559,2.9581,2.9528,2.9541,2.957,2.9612,2.9544,2.952,2.951,2.9646,2.9648,2.9649,2.965,0,0,2.9432,2.9466,2.9456,2.9462,2.9481,2.9472,2.9451,2.9451,2.9444,2.945,2.9432,2.942,2.9448,2.9448,2.9472,2.9452,2.939,2.9485,2.9485,2.9466,2.9332,2.9309,2.9297,2.941,2.9408,2.9407,2.9331,0,2.9355,2.9323,2.9356,2.9317,2.9306,2.9353,2.9335,2.9344,2.9361,2.9354,2.9372,2.9362,2.94,2.9401,2.9384,2.9401,2.9363,2.9407,2.9393,2.9392,2.9388,2.9284,2.9259,2.9187,2.9322,2.9321,2.9319,0,2.9259,2.9262,2.9222,2.9246,2.9242,2.9226,2.9229,2.9221,2.9233,2.9246,2.9248,2.9278,2.9258,2.9301,2.9274,2.9303,2.93,2.9308,2.9306,2.9304,2.935,2.9279,2.9165,2.9154,2.9305,2.9306,2.9307,0,2.9169,2.9163,2.9139,2.9142,2.9169,2.9156,2.9166,2.918,2.9178,2.918,2.9179,2.9179,2.9178,2.9176,2.9205,2.9233,2.9174,2.9219,2.9184,2.9183,2.9168,2.9168,2.905,2.9167,2.9167,2.9168,2.9168,0,2.9077,2.9051,2.9099,2.9083,2.9055,2.9094,2.9064,2.9079,2.9092,2.908,2.912,2.9108,2.9147,2.9138,2.916,2.9135,2.9134,2.9144,2.9149,2.9139,2.9138,2.9136,2.9141,2.9165,2.9165,2.9166,2.9166,0,2.8971,2.9002,2.8979,2.9007,2.9013,2.8991,2.9014,2.9001,2.9021,2.9005,2.9004,2.9035,2.9027,2.9057,2.9053,2.9068,2.903,2.9044,2.9026,2.903,2.8993,2.8996,2.8869,2.8855,2.8981,2.898,2.8979,0,2.891,2.8891,2.8918,2.8914,2.8922,2.8914,2.8914,2.8951,2.8948,2.8961,2.8946,2.8942,2.8941,2.8926,2.8947,2.8945,2.8959,2.8915,2.8959,2.8949,2.8957,2.8958,2.8956,2.8905,2.8904,2.8902,2.8901,0,2.8798,2.8815,2.8813,2.8817,2.8815,2.8819,2.8826,2.882,2.886,2.8855,2.8849,2.8848,2.8846,2.8841,2.8843,2.8852,2.8883,2.8888,2.888,2.8868,2.8858,2.8862,2.9,2.889,2.8891,2.8892,2.8893,2.8893,2.8712,2.8698,2.8715,2.8712,2.8722,2.8727,2.8717,2.8737,2.8733,2.8735,2.8757,2.8746,2.8759,2.8766,2.8773,2.8764,2.8785,2.8772,2.8769,2.8765,2.8759,2.8861,2.8765,2.8765,2.8766,2.8766,2.8766,0,2.8603,2.8617,2.8613,2.8623,2.862,2.8652,2.8661,2.8656,2.8647,2.8657,2.8656,2.8649,2.8645,2.8667,2.8666,2.8655,2.8669,2.8653,2.8654,2.8655,2.8741,2.8748,2.8642,2.8642,2.8642,2.8642,2.8642,2.8642,2.8545,2.8523,2.8542,2.8525,2.8539,2.853,2.8533,2.8538,2.8547,2.8538,2.8535,2.8551,2.8566,2.8567,2.8564,2.8571,2.8568,2.8547,2.8558,2.8637,2.8649,2.8661,2.8668,2.8546,2.8546,2.8474,2.8473,2.8472]}]]